Barkley Observed Data For Previous 48 Hours

Caption
Day and Hour Reservoir Elevation (behind dam)* Tailwater Elevation (below dam)* Average Hourly Discharge*
11/11/2018 1 AM CST 356.60 321.50 29,300
11/11/2018 2 AM CST 356.60 321.50 29,300
11/11/2018 3 AM CST 356.65 321.45 29,300
11/11/2018 4 AM CST 356.65 321.45 29,300
11/11/2018 5 AM CST 356.70 321.50 29,300
11/11/2018 6 AM CST 356.70 321.50 29,300
11/11/2018 7 AM CST 356.70 321.50 29,300
11/11/2018 8 AM CST 356.75 321.55 29,300
11/11/2018 9 AM CST 356.75 321.55 29,300
11/11/2018 10 AM CST 356.75 321.55 29,300
11/11/2018 11 AM CST 356.80 321.50 29,100
11/11/2018 12 PM CST 356.80 321.50 29,100
11/11/2018 1 PM CST 356.80 321.50 29,100
11/11/2018 2 PM CST 356.80 321.50 29,100
11/11/2018 3 PM CST 356.80 321.60 29,300
11/11/2018 4 PM CST 356.80 321.60 29,300
11/11/2018 5 PM CST 356.80 321.60 29,300
11/11/2018 6 PM CST 356.80 321.60 28,300
11/11/2018 7 PM CST 356.90 321.60 29,100
11/11/2018 8 PM CST 356.95 321.55 29,100
11/11/2018 9 PM CST 356.95 321.55 29,100
11/11/2018 10 PM CST 357.00 321.50 28,900
11/11/2018 11 PM CST 357.00 321.60 29,100
11/12/2018 12 AM CST 357.00 321.60 29,600
11/12/2018 1 AM CST 357.05 321.55 28,900
11/12/2018 2 AM CST 357.05 321.55 29,400
11/12/2018 3 AM CST 357.10 321.50 29,400
11/12/2018 4 AM CST 357.10 321.50 28,900
11/12/2018 5 AM CST 357.10 321.50 29,400
11/12/2018 6 AM CST 357.10 321.50 29,400
11/12/2018 7 AM CST 357.10 321.50 29,400
11/12/2018 8 AM CST 357.15 321.45 28,700
11/12/2018 9 AM CST 357.15 321.45 28,700
11/12/2018 10 AM CST 357.20 321.50 29,700
11/12/2018 11 AM CST 357.20 321.50 29,200
11/12/2018 12 PM CST 357.20 321.50 28,700
11/12/2018 1 PM CST 357.20 321.47 29,200
11/12/2018 2 PM CST 357.20 321.43 29,200
11/12/2018 3 PM CST 357.20 321.40 29,700
11/12/2018 4 PM CST 357.20 321.40 28,700
11/12/2018 5 PM CST 357.20 321.40 29,200
11/12/2018 6 PM CST 357.20 321.40 29,200
11/12/2018 7 PM CST 357.10 321.40 29,200
11/12/2018 8 PM CST 357.10 321.40 29,200
11/12/2018 9 PM CST 357.10 321.40 29,200
11/12/2018 10 PM CST 357.15 321.25 29,000
11/12/2018 11 PM CST 357.15 321.15 29,500
11/13/2018 12 AM CST 357.15 321.15 29,500
11/13/2018 1 AM CST 357.20 321.20 29,000
11/13/2018 2 AM CST 357.20 321.20 29,500
11/13/2018 3 AM CST 357.20 321.20 29,000
11/13/2018 4 AM CST 357.20 321.20 29,500
11/13/2018 5 AM CST 357.20 321.20 29,500
11/13/2018 6 AM CST 357.20 321.20 29,500
11/13/2018 7 AM CST 357.20 321.10 29,300
11/13/2018 8 AM CST 357.30 321.10 29,300
11/13/2018 9 AM CST 357.30 321.10 29,300

Elevations are in feet above sea level. Discharges are in cubic feet per second and are reported at the end of the hour.